| time (UTC) | temp F | wind direction | speed MPH | gust MPH | rain 1hr in | rain 24hr in | rain mn in | humidity % | barometer mb |
| 20260507100005 | 33 | 163 | 0.0 | 0.0 | 0.00 | 0.00 | 0.00 | 73 | 1013.2 |
| 20260507095003 | 33 | 163 | 0.0 | 0.0 | 0.00 | 0.00 | 0.00 | 73 | 1013.2 |
| 20260507094005 | 33 | 163 | 1.0 | 0.0 | 0.00 | 0.00 | 0.00 | 73 | 1013.3 |
| 20260507093003 | 33 | 175 | 0.0 | 0.0 | 0.00 | 0.00 | 0.00 | 74 | 1013.4 |
| 20260507092003 | 33 | 175 | 0.0 | 0.0 | 0.00 | 0.00 | 0.00 | 74 | 1013.4 |
| 20260507091005 | 33 | 175 | 0.0 | 0.0 | 0.00 | 0.00 | 0.00 | 75 | 1013.4 |
| 20260507090003 | 33 | 15 | 0.0 | 0.0 | 0.00 | 0.00 | 0.00 | 76 | 1013.5 |
| 20260507085005 | 33 | 15 | 0.0 | 1.0 | 0.00 | 0.00 | 0.00 | 77 | 1013.6 |
| 20260507084003 | 33 | 15 | 0.0 | 0.0 | 0.00 | 0.00 | 0.00 | 79 | 1013.5 |
| 20260507083005 | 34 | 15 | 0.0 | 0.0 | 0.00 | 0.00 | 0.00 | 78 | 1013.7 |
| 20260507082003 | 34 | 15 | 0.0 | 0.0 | 0.00 | 0.00 | 0.00 | 78 | 1013.7 |
| 20260507081005 | 34 | 15 | 0.0 | 0.0 | 0.00 | 0.00 | 0.00 | 74 | 1013.6 |
| 20260507080003 | 33 | 15 | 0.0 | 0.0 | 0.00 | 0.00 | 0.00 | 74 | 1013.7 |
| 20260507075004 | 33 | 15 | 0.0 | 0.0 | 0.00 | 0.00 | 0.00 | 74 | 1013.7 |
| 20260507074003 | 33 | 15 | 0.0 | 0.0 | 0.00 | 0.00 | 0.00 | 73 | 1013.6 |
| 20260507073004 | 34 | 15 | 0.0 | 0.0 | 0.00 | 0.00 | 0.00 | 73 | 1013.9 |
| 20260507072018 | 34 | 15 | 0.0 | 0.0 | 0.00 | 0.00 | 0.00 | 73 | 1014.0 |
| 20260507071004 | 34 | 15 | 0.0 | 0.0 | 0.00 | 0.00 | 0.00 | 73 | 1014.2 |
| 20260507070005 | 34 | 15 | 0.0 | 0.0 | 0.00 | 0.00 | 0.00 | 73 | 1014.1 |
| 20260507065004 | 34 | 360 | 0.0 | 1.0 | 0.00 | 0.00 | 0.00 | 72 | 1014.3 |
| 20260507064004 | 34 | 360 | 0.0 | 0.0 | 0.00 | 0.00 | 0.00 | 72 | 1014.3 |
| 20260507063005 | 34 | 360 | 0.0 | 0.0 | 0.00 | 0.00 | 0.00 | 72 | 1014.3 |
| 20260507062003 | 34 | 360 | 0.0 | 0.0 | 0.00 | 0.00 | 0.00 | 70 | 1014.4 |
| 20260507061004 | 34 | 360 | 0.0 | 0.0 | 0.00 | 0.00 | 0.00 | 69 | 1014.4 |
| 20260507060005 | 34 | 360 | 0.0 | 0.0 | 0.00 | 0.00 | 0.00 | 69 | 1014.6 |
| 20260507055004 | 34 | 360 | 0.0 | 0.0 | 0.00 | 0.00 | 0.00 | 68 | 1014.7 |
| 20260507054003 | 35 | 360 | 0.0 | 0.0 | 0.00 | 0.00 | 0.00 | 68 | 1014.8 |
| 20260507053005 | 35 | 360 | 0.0 | 0.0 | 0.00 | 0.00 | 0.00 | 67 | 1014.9 |
| 20260507052003 | 35 | 360 | 0.0 | 0.0 | 0.00 | 0.00 | 0.00 | 66 | 1014.9 |
| 20260507051004 | 36 | 360 | 0.0 | 0.0 | 0.00 | 0.00 | 0.00 | 66 | 1014.9 |
| 20260507050006 | 36 | 360 | 0.0 | 0.0 | 0.00 | 0.00 | 0.00 | 64 | 1015.0 |
| 20260507045004 | 37 | 360 | 0.0 | 0.0 | 0.00 | 0.00 | 0.00 | 63 | 1015.2 |
| 20260507044019 | 37 | 360 | 0.0 | 0.0 | 0.00 | 0.00 | 0.00 | 63 | 1015.3 |
| 20260507043020 | 38 | 360 | 0.0 | 0.0 | 0.00 | 0.00 | 0.00 | 62 | 1015.2 |
| 20260507042003 | 38 | 360 | 0.0 | 0.0 | 0.00 | 0.00 | 0.00 | 61 | 1015.3 |
| 20260507041004 | 38 | 360 | 0.0 | 0.0 | 0.00 | 0.00 | 0.00 | 60 | 1015.3 |
| 20260507040003 | 39 | 360 | 0.0 | 0.0 | 0.00 | 0.00 | 0.00 | 59 | 1015.4 |
| 20260507035004 | 39 | 360 | 0.0 | 1.0 | 0.00 | 0.00 | 0.00 | 58 | 1015.5 |
| 20260507034003 | 40 | 360 | 0.0 | 2.0 | 0.00 | 0.00 | 0.00 | 56 | 1015.5 |
| 20260507033003 | 40 | 360 | 1.0 | 1.0 | 0.00 | 0.00 | 0.00 | 56 | 1015.5 |
| 20260507032004 | 40 | 360 | 0.0 | 2.0 | 0.00 | 0.00 | 0.00 | 56 | 1015.5 |
| 20260507031018 | 41 | 360 | 0.0 | 0.0 | 0.00 | 0.00 | 0.00 | 55 | 1015.6 |
| 20260507030003 | 41 | 360 | 0.0 | 0.0 | 0.00 | 0.00 | 0.00 | 54 | 1015.5 |
| 20260507025022 | 42 | 360 | 0.0 | 1.0 | 0.00 | 0.00 | 0.00 | 53 | 1015.4 |
| 20260507024003 | 42 | 360 | 0.0 | 2.0 | 0.00 | 0.00 | 0.00 | 53 | 1015.4 |
| 20260507023004 | 42 | 360 | 0.0 | 0.0 | 0.00 | 0.00 | 0.00 | 52 | 1015.3 |
| 20260507022002 | 43 | 360 | 0.0 | 0.0 | 0.00 | 0.00 | 0.00 | 51 | 1015.3 |
| 20260507021004 | 43 | 360 | 0.0 | 0.0 | 0.00 | 0.00 | 0.00 | 51 | 1015.3 |
| 20260507020018 | 44 | 360 | 0.0 | 1.0 | 0.00 | 0.00 | 0.00 | 50 | 1015.2 |
| 20260507015004 | 44 | 360 | 0.0 | 0.0 | 0.00 | 0.00 | 0.00 | 49 | 1015.1 |
| 20260507014003 | 44 | 360 | 1.0 | 2.0 | 0.00 | 0.00 | 0.00 | 49 | 1015.0 |
| 20260507013003 | 45 | 356 | 1.0 | 5.0 | 0.00 | 0.00 | 0.00 | 48 | 1015.0 |
| 20260507012005 | 45 | 355 | 0.0 | 0.0 | 0.00 | 0.00 | 0.00 | 47 | 1015.0 |
| 20260507011004 | 46 | 14 | 0.0 | 2.0 | 0.00 | 0.00 | 0.00 | 47 | 1015.1 |
| 20260507010002 | 46 | 31 | 0.0 | 1.0 | 0.00 | 0.00 | 0.00 | 47 | 1015.1 |
| 20260507005004 | 46 | 31 | 0.0 | 0.0 | 0.00 | 0.00 | 0.00 | 46 | 1015.2 |
| 20260507004006 | 47 | 356 | 2.0 | 4.0 | 0.00 | 0.00 | 0.00 | 46 | 1015.2 |
| 20260507003002 | 47 | 355 | 2.0 | 6.0 | 0.00 | 0.00 | 0.00 | 45 | 1015.2 |
| 20260507002004 | 47 | 350 | 1.0 | 4.0 | 0.00 | 0.00 | 0.00 | 46 | 1015.2 |
| 20260507001004 | 47 | 303 | 1.0 | 3.0 | 0.00 | 0.00 | 0.00 | 44 | 1015.4 |
| 20260507000019 | 48 | 34 | 3.0 | 7.0 | 0.00 | 0.00 | 0.00 | 45 | 1015.4 |
| 20260506235002 | 48 | 355 | 4.0 | 10.0 | 0.00 | 0.00 | 0.00 | 44 | 1015.5 |
| 20260506234019 | 48 | 307 | 2.0 | 4.0 | 0.00 | 0.00 | 0.00 | 44 | 1015.6 |
| 20260506233004 | 48 | 345 | 2.0 | 5.0 | 0.00 | 0.00 | 0.00 | 45 | 1015.7 |
| 20260506232003 | 49 | 327 | 2.0 | 4.0 | 0.00 | 0.00 | 0.00 | 45 | 1015.7 |
| 20260506231004 | 49 | 314 | 3.0 | 7.0 | 0.00 | 0.00 | 0.00 | 45 | 1015.8 |
| 20260506230019 | 50 | 323 | 5.0 | 9.0 | 0.00 | 0.00 | 0.00 | 44 | 1015.8 |
| 20260506225005 | 50 | 297 | 3.0 | 9.0 | 0.00 | 0.00 | 0.00 | 43 | 1015.9 |
| 20260506224004 | 50 | 355 | 3.0 | 5.0 | 0.00 | 0.00 | 0.00 | 44 | 1015.8 |
| 20260506223005 | 50 | 300 | 1.0 | 3.0 | 0.00 | 0.00 | 0.00 | 44 | 1016.0 |
| 20260506222003 | 50 | 338 | 2.0 | 3.0 | 0.00 | 0.00 | 0.00 | 45 | 1016.1 |
| 20260506221004 | 49 | 355 | 2.0 | 4.0 | 0.00 | 0.00 | 0.00 | 44 | 1016.0 |
| 20260506220004 | 49 | 340 | 3.0 | 3.0 | 0.00 | 0.00 | 0.00 | 45 | 1016.2 |
| 20260506215004 | 49 | 344 | 3.0 | 9.0 | 0.00 | 0.00 | 0.00 | 44 | 1016.2 |
| 20260506214003 | 49 | 360 | 2.0 | 0.0 | 0.00 | 0.00 | 0.00 | 45 | 1016.2 |
| 20260506213004 | 49 | 299 | 3.0 | 10.0 | 0.00 | 0.00 | 0.00 | 45 | 1016.3 |
| 20260506212004 | 49 | 292 | 3.0 | 5.0 | 0.00 | 0.00 | 0.00 | 45 | 1016.4 |
| 20260506211005 | 49 | 321 | 5.0 | 9.0 | 0.00 | 0.00 | 0.00 | 43 | 1016.5 |
| 20260506210005 | 49 | 299 | 5.0 | 11.0 | 0.00 | 0.00 | 0.00 | 43 | 1016.5 |
| 20260506205003 | 48 | 289 | 5.0 | 12.0 | 0.00 | 0.00 | 0.00 | 44 | 1016.8 |
| 20260506204003 | 48 | 354 | 1.0 | 4.0 | 0.00 | 0.00 | 0.00 | 48 | 1017.0 |
| 20260506203004 | 47 | 313 | 1.0 | 4.0 | 0.00 | 0.00 | 0.00 | 48 | 1016.9 |
| 20260506202018 | 47 | 324 | 4.0 | 10.0 | 0.00 | 0.00 | 0.00 | 47 | 1017.0 |
| 20260506201004 | 47 | 298 | 1.0 | 4.0 | 0.00 | 0.00 | 0.00 | 46 | 1017.1 |
| 20260506200004 | 48 | 301 | 3.0 | 5.0 | 0.00 | 0.00 | 0.00 | 47 | 1017.1 |
| 20260506195003 | 47 | 327 | 2.0 | 3.0 | 0.00 | 0.00 | 0.00 | 48 | 1017.2 |
| 20260506194003 | 46 | 314 | 3.0 | 4.0 | 0.00 | 0.00 | 0.00 | 48 | 1017.3 |
| 20260506193004 | 46 | 267 | 2.0 | 3.0 | 0.00 | 0.00 | 0.00 | 48 | 1017.3 |
| 20260506192004 | 46 | 257 | 1.0 | 3.0 | 0.00 | 0.00 | 0.00 | 49 | 1017.3 |
| 20260506191004 | 45 | 307 | 1.0 | 5.0 | 0.00 | 0.00 | 0.00 | 50 | 1017.4 |
| 20260506190004 | 45 | 273 | 3.0 | 3.0 | 0.00 | 0.00 | 0.00 | 50 | 1017.5 |
| 20260506185018 | 45 | 278 | 2.0 | 3.0 | 0.00 | 0.00 | 0.00 | 51 | 1017.7 |
| 20260506184004 | 45 | 347 | 4.0 | 6.0 | 0.00 | 0.00 | 0.00 | 50 | 1017.6 |
| 20260506183005 | 45 | 19 | 3.0 | 4.0 | 0.00 | 0.00 | 0.00 | 51 | 1017.8 |
| 20260506182004 | 45 | 353 | 3.0 | 6.0 | 0.00 | 0.00 | 0.00 | 54 | 1017.8 |
| 20260506181004 | 44 | 354 | 3.0 | 6.0 | 0.00 | 0.00 | 0.00 | 53 | 1017.8 |
| 20260506180005 | 44 | 4 | 3.0 | 9.0 | 0.00 | 0.00 | 0.00 | 53 | 1017.9 |
| 20260506175004 | 43 | 295 | 4.0 | 9.0 | 0.00 | 0.00 | 0.00 | 52 | 1018.0 |
| 20260506174004 | 43 | 312 | 2.0 | 4.0 | 0.00 | 0.00 | 0.00 | 52 | 1018.1 |
| 20260506173004 | 43 | 304 | 3.0 | 11.0 | 0.00 | 0.00 | 0.00 | 53 | 1018.2 |
| 20260506172003 | 42 | 323 | 4.0 | 8.0 | 0.00 | 0.00 | 0.00 | 53 | 1018.2 |
| 20260506171004 | 42 | 313 | 6.0 | 9.0 | 0.00 | 0.00 | 0.00 | 53 | 1018.2 |
| 20260506170004 | 42 | 348 | 5.0 | 11.0 | 0.00 | 0.00 | 0.00 | 53 | 1018.3 |
| 20260506165003 | 42 | 293 | 3.0 | 6.0 | 0.00 | 0.00 | 0.00 | 53 | 1018.3 |
| 20260506164004 | 42 | 328 | 2.0 | 1.0 | 0.00 | 0.00 | 0.00 | 53 | 1018.2 |
| 20260506163002 | 41 | 6 | 1.0 | 3.0 | 0.00 | 0.00 | 0.00 | 55 | 1018.3 |
| 20260506162018 | 41 | 360 | 7.0 | 11.0 | 0.00 | 0.00 | 0.00 | 53 | 1018.3 |
| 20260506161004 | 41 | 334 | 3.0 | 5.0 | 0.00 | 0.00 | 0.00 | 56 | 1018.4 |
| 20260506160005 | 41 | 282 | 3.0 | 7.0 | 0.00 | 0.00 | 0.00 | 57 | 1018.3 |
| 20260506155004 | 41 | 357 | 2.0 | 5.0 | 0.00 | 0.00 | 0.00 | 57 | 1018.3 |
| 20260506154003 | 41 | 325 | 3.0 | 8.0 | 0.00 | 0.00 | 0.00 | 58 | 1018.3 |
| 20260506153004 | 40 | 306 | 3.0 | 9.0 | 0.00 | 0.00 | 0.00 | 58 | 1018.2 |
| 20260506152002 | 40 | 303 | 1.0 | 2.0 | 0.00 | 0.00 | 0.00 | 59 | 1018.2 |
| 20260506151003 | 40 | 344 | 4.0 | 10.0 | 0.00 | 0.00 | 0.00 | 58 | 1018.2 |
| 20260506150003 | 40 | 353 | 2.0 | 4.0 | 0.00 | 0.00 | 0.00 | 60 | 1018.2 |
| 20260506145004 | 40 | 7 | 4.0 | 4.0 | 0.00 | 0.00 | 0.00 | 60 | 1018.1 |
| 20260506144004 | 40 | 317 | 0.0 | 3.0 | 0.00 | 0.00 | 0.00 | 62 | 1018.2 |
| 20260506143003 | 39 | 334 | 2.0 | 9.0 | 0.00 | 0.00 | 0.00 | 62 | 1018.2 |
| 20260506142004 | 39 | 343 | 1.0 | 3.0 | 0.00 | 0.00 | 0.00 | 63 | 1018.2 |
| 20260506141003 | 39 | 315 | 1.0 | 1.0 | 0.00 | 0.00 | 0.00 | 63 | 1018.1 |
| 20260506140004 | 39 | 282 | 1.0 | 2.0 | 0.00 | 0.00 | 0.00 | 67 | 1018.1 |
| 20260506135002 | 38 | 296 | 0.0 | 0.0 | 0.00 | 0.00 | 0.00 | 69 | 1018.0 |
| 20260506134003 | 38 | 297 | 1.0 | 3.0 | 0.00 | 0.00 | 0.00 | 70 | 1018.0 |
| 20260506133004 | 38 | 323 | 0.0 | 0.0 | 0.00 | 0.00 | 0.00 | 71 | 1017.9 |
| 20260506132003 | 38 | 323 | 0.0 | 0.0 | 0.00 | 0.00 | 0.00 | 71 | 1017.8 |
| 20260506131004 | 38 | 345 | 0.0 | 0.0 | 0.00 | 0.00 | 0.00 | 71 | 1017.8 |
| 20260506130004 | 38 | 345 | 0.0 | 0.0 | 0.00 | 0.00 | 0.00 | 71 | 1017.7 |
| 20260506125003 | 38 | 345 | 0.0 | 0.0 | 0.00 | 0.00 | 0.00 | 70 | 1017.6 |
| 20260506124004 | 37 | 345 | 0.0 | 0.0 | 0.00 | 0.00 | 0.00 | 72 | 1017.5 |
| 20260506123018 | 37 | 360 | 0.0 | 0.0 | 0.00 | 0.00 | 0.00 | 72 | 1017.4 |
| 20260506122002 | 37 | 360 | 0.0 | 3.0 | 0.00 | 0.00 | 0.00 | 70 | 1017.3 |
| 20260506121003 | 37 | 360 | 0.0 | 0.0 | 0.00 | 0.00 | 0.00 | 71 | 1017.1 |
| 20260506120002 | 37 | 360 | 0.0 | 0.0 | 0.00 | 0.00 | 0.00 | 70 | 1017.0 |
| 20260506115003 | 37 | 360 | 0.0 | 0.0 | 0.00 | 0.00 | 0.00 | 70 | 1016.9 |
| 20260506114002 | 37 | 360 | 0.0 | 0.0 | 0.00 | 0.00 | 0.00 | 70 | 1016.7 |
| 20260506113003 | 37 | 360 | 0.0 | 0.0 | 0.00 | 0.00 | 0.00 | 70 | 1016.4 |
| 20260506112004 | 37 | 360 | 0.0 | 0.0 | 0.00 | 0.00 | 0.00 | 70 | 1016.5 |
| 20260506111002 | 37 | 360 | 0.0 | 0.0 | 0.00 | 0.00 | 0.00 | 70 | 1016.3 |
| 20260506110003 | 37 | 360 | 0.0 | 1.0 | 0.00 | 0.00 | 0.00 | 70 | 1016.3 |
| 20260506105004 | 37 | 340 | 0.0 | 0.0 | 0.00 | 0.00 | 0.00 | 70 | 1016.2 |
| 20260506104003 | 37 | 340 | 0.0 | 1.0 | 0.00 | 0.00 | 0.00 | 70 | 1016.2 |
| 20260506103004 | 37 | 340 | 0.0 | 0.0 | 0.00 | 0.00 | 0.00 | 70 | 1016.2 |
| 20260506102003 | 37 | 340 | 0.0 | 0.0 | 0.00 | 0.00 | 0.00 | 70 | 1016.3 |
| 20260506101004 | 37 | 340 | 0.0 | 0.0 | 0.00 | 0.00 | 0.00 | 69 | 1016.3 |